This is the latest recevied weather packets stored in our database for station/object KI5UTS-13. If no packets are shown the sender has not sent any weather packets the latest 10 day(s).
| Time | Temp. | Humidity | Pressure | Rain* | Wind** | Luminosity | Snow |
|---|---|---|---|---|---|---|---|
| 1788556418 | 32.78° C | 73% | 1014.5 hPa | 0 mm | - | 547 W/m² | - |
| 1788556118 | 31.67° C | 74% | 1014.8 hPa | 0 mm | - | 563 W/m² | - |
| 1788555812 | 32.22° C | 74% | 1014.6 hPa | 0 mm | - | 493 W/m² | - |
| 1788555509 | 31.11° C | 75% | 1014.6 hPa | 0 mm | - | 474 W/m² | - |
| 1788555204 | 30.56° C | 77% | 1014.4 hPa | 0 mm | - | 235 W/m² | - |
| 1788554901 | 31.67° C | 74% | 1014.5 hPa | 0 mm | - | 366 W/m² | - |
| 1788554596 | 31.11° C | 76% | 1014.5 hPa | 0 mm | - | 591 W/m² | - |
| 1788554293 | 31.67° C | 74% | 1014.4 hPa | 0 mm | - | 616 W/m² | - |
| 1788553989 | 31.11° C | 76% | 1014.6 hPa | 0 mm | - | 616 W/m² | - |
| 1788553684 | 30.56° C | 77% | 1014.7 hPa | 0 mm | - | 675 W/m² | - |
| 1788553381 | 31.11° C | 77% | 1014.6 hPa | 0 mm | - | 214 W/m² | - |
| 1788553076 | 31.11° C | 78% | 1014.7 hPa | 0 mm | - | 110 W/m² | - |
| 1788552775 | 32.22° C | 74% | 1014.8 hPa | 0 mm | - | 191 W/m² | - |
| 1788552470 | 32.22° C | 74% | 1014.9 hPa | 0 mm | - | 382 W/m² | - |
| 1788552164 | 31.67° C | 75% | 1015 hPa | 0 mm | - | 290 W/m² | - |
| 1788551864 | 31.67° C | 76% | 1015 hPa | 0 mm | - | 781 W/m² | - |
| 1788551563 | 30.56° C | 77% | 1015.2 hPa | 0 mm | - | 685 W/m² | - |
| 1788551258 | 31.11° C | 75% | 1015.1 hPa | 0 mm | - | 205 W/m² | - |
| 1788550957 | 31.11° C | 76% | 1015.1 hPa | 0 mm | - | 700 W/m² | - |
| 1788550652 | 30.56° C | 80% | 1015.1 hPa | 0 mm | - | 722 W/m² | - |
| 1788550348 | 30.56° C | 78% | 1015.2 hPa | 0 mm | - | 732 W/m² | - |
| 1788550043 | 30.56° C | 78% | 1015.4 hPa | 0 mm | - | 736 W/m² | - |
| 1788549738 | 31.11° C | 76% | 1015.5 hPa | 0 mm | - | 747 W/m² | - |
| 1788549435 | 30° C | 80% | 1015.5 hPa | 0 mm | - | 662 W/m² | - |
| 1788549130 | 30.56° C | 81% | 1015.6 hPa | 0 mm | - | 706 W/m² | - |
* Rain latest hour (hover to see other rain measurements)
** Current wind speed in m/s (hover to see current wind gust speed)